Weather History for Aktion, Greece

Change the Weather History Date:

Sunday, October 9, 2011

  Actual Average Record
Temperature  
Mean Temperature 61 °F -  
Max Temperature 65 °F 69 °F 82 °F (1997)
Min Temperature 57 °F 56 °F 57 °F (2000)
Degree Days  
Heating Degree Days 4    
Growing Degree Days 11 (Base 50)    
Moisture  
Dew Point 56 °F    
Average Humidity 86    
Maximum Humidity 94    
Minimum Humidity 64    
Precipitation  
Precipitation 0.31 in - - ()
Sea Level Pressure  
Sea Level Pressure 29.64 in    
Wind  
Wind Speed 4 mph ()    
Max Wind Speed 14 mph    
Max Gust Speed -    
Visibility 6.1 miles    
Events Rain , Thunderstorm    
Averages and records for this station are not official NWS values.
T = Trace of Precipitation, MM = Missing Value Source: Averaged Metar Reports

Daily Weather History Graph

Daily Weather History Graph

Search for Another Location

Airport:

Trip Planner

Search our weather history database for the weather conditions in past years. The results will help you decide how hot, cold, wet, or windy it might be!

Date:

Astronomy

Oct. 09, 2011 Rise Set
Actual Time 7:39 AM EEST 7:08 PM EEST
Civil Twilight 7:13 AM EEST 7:34 PM EEST
Nautical Twilight 6:42 AM EEST 8:05 PM EEST
Astronomical Twilight 6:11 AM EEST 8:36 PM EEST
Moon 5:36 PM EEST (10/9) 5:08 AM EEST (10/9)
Length of Visible Light 12h 21m
Length of Day
11h 28m
Waxing Gibbous, 93% of the Moon is Illuminated
Oct 9
Waxing Gibbous
Oct 12
Full
Oct 20
Last Quarter
Oct 26
New
Nov 2
First Quarter

Hourly Weather History & Observations

Time (EEST) Temp. Dew Point Humidity Pressure Visibility Wind Dir Wind Speed Gust Speed Precip Events Conditions
12:50 AM 62.6 °F 60.8 °F 94% 29.68 in 6.2 mi Variable 3.5 mph - N/A   Overcast
1:50 AM 60.8 °F 59.0 °F 94% 29.65 in 6.2 mi SE 4.6 mph - N/A   Mostly Cloudy
2:50 AM 60.8 °F 59.0 °F 94% 29.65 in 6.2 mi Calm Calm - N/A   Overcast
3:00 AM 61 °F 59 °F 92% 29.67 in 6 mi Calm Calm - - Rain Light Rain
3:50 AM 60.8 °F 59.0 °F 94% 29.65 in 5.6 mi Variable 3.5 mph - N/A Rain Rain
4:50 AM 60.8 °F 59.0 °F 94% 29.65 in 5.6 mi SE 4.6 mph - N/A Rain Rain
5:50 AM 60.8 °F 59.0 °F 94% 29.62 in 5.6 mi SE 6.9 mph - N/A Rain Rain
6:20 AM 60.8 °F 59.0 °F 94% 29.62 in 5.6 mi SSE 6.9 mph - N/A Rain Rain
6:50 AM 59.0 °F 57.2 °F 94% 29.62 in 6.2 mi SSE 5.8 mph - N/A   Overcast
7:20 AM 59.0 °F 57.2 °F 94% 29.62 in 6.2 mi SSE 5.8 mph - N/A   Overcast
7:50 AM 59.0 °F 57.2 °F 94% 29.62 in 6.2 mi Variable 3.5 mph - N/A   Mostly Cloudy
8:20 AM 59.0 °F 57.2 °F 94% 29.62 in 6.2 mi Variable 3.5 mph - N/A   Mostly Cloudy
8:50 AM 60.8 °F 59.0 °F 94% 29.65 in 6.2 mi Variable 3.5 mph - N/A   Mostly Cloudy
9:00 AM 60 °F 58 °F 93% 29.65 in 6 mi 3.5 mph - - Rain Light Rain
9:20 AM 60.8 °F 59.0 °F 94% 29.65 in 6.2 mi Variable 3.5 mph - N/A   Mostly Cloudy
9:50 AM 60.8 °F 57.2 °F 88% 29.65 in 6.2 mi ESE 4.6 mph - N/A   Mostly Cloudy
10:20 AM 60.8 °F 57.2 °F 88% 29.65 in 6.2 mi ESE 4.6 mph - N/A   Mostly Cloudy
10:50 AM 60.8 °F 57.2 °F 88% 29.65 in 6.2 mi ESE 4.6 mph - N/A   Mostly Cloudy
11:20 AM 60.8 °F 57.2 °F 88% 29.65 in 6.2 mi ESE 4.6 mph - N/A   Mostly Cloudy
11:50 AM 66.2 °F 57.2 °F 73% 29.65 in 6.2 mi NNE 6.9 mph - N/A   Mostly Cloudy
12:20 PM 66.2 °F 57.2 °F 73% 29.65 in 6.2 mi Calm Calm - N/A   Mostly Cloudy
12:50 PM 59.0 °F 55.4 °F 88% 29.68 in 6.2 mi SSE 13.8 mph - N/A Rain , Thunderstorm Light Thunderstorms and Rain
1:20 PM 59.0 °F 55.4 °F 88% 29.68 in 6.2 mi WNW 11.5 mph - N/A   Mostly Cloudy
1:50 PM 64.4 °F 53.6 °F 68% 29.65 in 6.2 mi Calm Calm - N/A   Mostly Cloudy
2:50 PM 64.4 °F 55.4 °F 73% 29.65 in 6.2 mi NNW 5.8 mph - N/A   Mostly Cloudy
3:00 PM 64 °F 55 °F 64% 29.65 in 6 mi NNW 5.8 mph - -   Partly Cloudy
3:20 PM 64.4 °F 55.4 °F 73% 29.65 in 6.2 mi Calm Calm - N/A   Mostly Cloudy
3:50 PM 64.4 °F 55.4 °F 73% 29.65 in 6.2 mi NNW 5.8 mph - N/A   Mostly Cloudy
4:20 PM 64.4 °F 55.4 °F 73% 29.65 in 6.2 mi Calm Calm - N/A   Mostly Cloudy
4:50 PM 62.6 °F 55.4 °F 77% 29.62 in 6.2 mi NNE 13.8 mph - N/A   Mostly Cloudy
5:20 PM 62.6 °F 55.4 °F 77% 29.62 in 5.6 mi NNE 11.5 mph - N/A   Mostly Cloudy
5:50 PM 59.0 °F 55.4 °F 88% 29.62 in 5.6 mi West 4.6 mph - N/A Rain Rain
6:20 PM 59.0 °F 55.4 °F 88% 29.62 in 5.6 mi East 8.1 mph - N/A Rain Rain
6:50 PM 57.2 °F 53.6 °F 88% 29.62 in 6.2 mi SE 5.8 mph - N/A Rain Light Rain
7:20 PM 57.2 °F 53.6 °F 88% 29.62 in 6.2 mi SE 6.9 mph - N/A Rain Light Rain
7:50 PM 57.2 °F 51.8 °F 82% 29.62 in 6.2 mi ESE 5.8 mph - N/A   Overcast
8:20 PM 57.2 °F 51.8 °F 82% 29.62 in 6.2 mi ESE 5.8 mph - N/A   Overcast
8:50 PM 57.2 °F 55.4 °F 94% 29.65 in 6.2 mi Calm Calm - N/A   Overcast
9:00 PM 58 °F 55 °F 85% 29.66 in 6 mi Calm Calm - -   Partly Cloudy
9:50 PM 57.2 °F 55.4 °F 94% 29.65 in 6.2 mi Calm Calm - N/A   Overcast
10:50 PM 57.2 °F 55.4 °F 94% 29.65 in 6.2 mi Calm Calm - N/A   Overcast
11:50 PM 57.2 °F 53.6 °F 88% 29.65 in 6.2 mi Calm Calm - N/A   Mostly Cloudy